Location: D�nning
(49.2479°N, 12.8491°E)
Time: 05:18:09
(UTC+00:00)

Cosmos 1766 - Pass Details

Date: 18 September 2020
Orbit: 521 x 544 km, 82.5° (Epoch: 27 October)

Event Time Altitude Azimuth Distance (km) Brightness Sun altitude
Exits shadow 19:34:11 40° 33° (NNE) 798 4.0 -22.5°
Drops below altitude 10° 19:36:54 10° 16° (NNE) 1,803 6.1 -22.8°
Sets 19:39:05 0° 13° (NNE) 2,703 7.1 -23.1°
